FW9093 Weather Reports


Display with metric or nautical units.
time (UTC)temp
F
wind
direction
speed
MPH
gust
MPH
rain 1hr
in
rain 24hr
in
rain mn
in
humidity
%
barometer
mb
20260906092805 66 133 1.0 2.0 0.00 0.00 0.00 93 1011.9
20260906092306 67 110 1.0 2.0 0.00 0.00 0.00 92 1011.9
20260906091805 67 210 1.0 3.0 0.00 0.00 0.00 92 1011.9
20260906091305 67 118 1.0 5.0 0.00 0.00 0.00 92 1011.9
20260906090805 67 109 1.0 5.0 0.00 0.00 0.00 92 1011.9
20260906090305 68 124 2.0 5.0 0.00 0.00 0.00 92 1011.9
20260906085804 67 144 1.0 6.0 0.00 0.00 0.00 92 1011.9
20260906085306 67 161 3.0 6.0 0.00 0.00 0.00 92 1011.9
20260906084804 67 140 2.0 6.0 0.00 0.00 0.00 92 1011.9
20260906083805 68 110 2.0 8.0 0.00 0.00 0.00 91 1011.9
20260906082804 67 119 3.0 6.0 0.00 0.00 0.00 91 1011.9
20260906082306 68 92 2.0 6.0 0.00 0.00 0.00 91 1011.9
20260906081804 68 159 2.0 7.0 0.00 0.00 0.00 91 1011.9
20260906081305 68 126 2.0 5.0 0.00 0.00 0.00 91 1011.9
20260906080804 68 135 3.0 7.0 0.00 0.00 0.00 92 1011.9
20260906080304 68 142 3.0 6.0 0.00 0.00 0.00 92 1011.9
20260906075804 68 69 2.0 6.0 0.00 0.00 0.00 91 1011.9
20260906075306 68 163 2.0 6.0 0.00 0.00 0.00 91 1011.9
20260906074805 68 138 2.0 5.0 0.00 0.00 0.00 91 1011.9
20260906074304 68 116 2.0 6.0 0.00 0.00 0.00 91 1011.9
20260906073304 68 160 3.0 7.0 0.00 0.00 0.00 92 1011.9
20260906072805 68 134 3.0 6.0 0.00 0.00 0.00 92 1011.9
20260906072306 68 129 3.0 7.0 0.00 0.00 0.00 92 1011.9
20260906071805 68 114 2.0 6.0 0.00 0.00 0.00 92 1011.9
20260906071305 68 159 1.0 5.0 0.00 0.00 0.00 93 1011.9
20260906070805 68 147 1.0 7.0 0.00 0.00 0.00 93 1011.9
20260906070305 68 141 1.0 3.0 0.00 0.00 0.00 93 1011.9
20260906065804 68 153 1.0 5.0 0.00 0.00 0.00 92 1011.9
20260906065305 68 181 1.0 2.0 0.00 0.00 0.00 92 1011.9
20260906064304 68 128 1.0 3.0 0.00 0.00 0.00 92 1011.9
20260906063804 68 125 2.0 5.0 0.00 0.00 0.00 91 1011.9
20260906063304 69 120 1.0 3.0 0.00 0.00 0.00 91 1011.9
20260906062806 69 115 2.0 5.0 0.00 0.00 0.00 91 1011.9
20260906062306 69 92 2.0 3.0 0.00 0.00 0.00 91 1011.9
20260906061805 69 48 2.0 6.0 0.00 0.00 0.00 91 1011.9
20260906061305 69 142 2.0 5.0 0.00 0.00 0.00 91 1011.9
20260906055805 70 145 1.0 3.0 0.00 0.00 0.00 90 1011.9
20260906055306 69 151 2.0 5.0 0.00 0.00 0.00 90 1011.9
20260906054805 70 160 2.0 5.0 0.00 0.00 0.00 89 1011.9
20260906053805 70 153 2.0 5.0 0.00 0.00 0.00 87 1011.9
20260906052805 70 176 2.0 5.0 0.00 0.00 0.00 88 1011.9
20260906052306 70 137 2.0 5.0 0.00 0.00 0.00 89 1011.9
20260906051805 70 131 2.0 5.0 0.00 0.00 0.00 87 1011.9
20260906051306 71 134 2.0 5.0 0.00 0.00 0.00 88 1011.9
20260906045805 71 176 3.0 7.0 0.00 0.00 0.00 85 1011.9
20260906044806 71 141 3.0 7.0 0.00 0.00 0.00 86 1011.9
20260906044305 71 166 3.0 7.0 0.00 0.00 0.00 85 1011.9
20260906042806 71 170 2.0 5.0 0.00 0.00 0.00 85 1011.9
20260906041805 71 146 2.0 8.0 0.00 0.00 0.00 84 1011.9
20260906041305 70 193 2.0 6.0 0.00 0.00 0.00 85 1011.9
20260906040806 71 76 2.0 5.0 0.00 0.00 0.00 85 1011.9
20260906040306 71 150 3.0 7.0 0.00 0.00 0.00 88 1011.9
20260906035805 70 149 2.0 7.0 0.00 0.00 0.00 87 1011.9
20260906034306 71 174 2.0 5.0 0.00 0.00 0.00 87 1011.9
20260906033805 71 131 2.0 6.0 0.00 0.00 0.00 89 1011.9
20260906033306 71 140 2.0 5.0 0.00 0.00 0.00 89 1011.9
20260906032805 70 92 1.0 2.0 0.00 0.00 0.00 89 1011.9
20260906032306 70 178 1.0 5.0 0.00 0.00 0.00 88 1011.9
20260906031805 70 153 2.0 5.0 0.00 0.00 0.00 88 1011.9
20260906031306 70 151 2.0 3.0 0.00 0.00 0.00 88 1011.9
20260906030305 71 175 1.0 3.0 0.00 0.00 0.00 88 1011.9
20260906025306 71 139 1.0 2.0 0.00 0.00 0.00 85 1011.9
20260906024805 71 152 1.0 3.0 0.00 0.00 0.00 85 1011.9
20260906024305 71 157 2.0 3.0 0.00 0.00 0.00 87 1011.9
20260906023805 71 123 2.0 5.0 0.00 0.00 0.00 85 1011.9
20260906022805 72 141 2.0 5.0 0.00 0.00 0.00 84 1011.9
20260906022307 72 140 2.0 3.0 0.00 0.00 0.00 87 1011.9
20260906021305 72 163 2.0 6.0 0.00 0.00 0.00 83 1011.9
20260906020305 72 176 2.0 5.0 0.00 0.00 0.00 84 1011.9
20260906015805 72 178 2.0 6.0 0.00 0.00 0.00 84 1011.9
20260906015306 73 152 3.0 5.0 0.00 0.00 0.00 85 1011.9
20260906014806 73 191 2.0 5.0 0.00 0.00 0.00 85 1011.9
20260906014305 72 171 2.0 3.0 0.00 0.00 0.00 85 1011.9
20260906013805 73 167 2.0 5.0 0.00 0.00 0.00 85 1011.9
20260906013305 73 126 2.0 6.0 0.00 0.00 0.00 85 1011.9
20260906012805 73 159 2.0 3.0 0.00 0.00 0.00 86 1011.9
20260906012306 73 98 2.0 3.0 0.00 0.00 0.00 86 1011.9
20260906011805 74 156 2.0 5.0 0.00 0.00 0.00 85 1011.9
20260906010805 74 93 2.0 6.0 0.00 0.00 0.00 83 1011.9
20260906010305 74 96 2.0 6.0 0.00 0.00 0.00 82 1011.9
20260906005306 74 77 2.0 7.0 0.00 0.00 0.00 82 1011.9
20260906004805 74 24 2.0 7.0 0.00 0.00 0.00 81 1011.9
20260906004305 74 9 2.0 7.0 0.00 0.00 0.00 81 1011.9
20260906003805 74 344 2.0 5.0 0.00 0.00 0.00 81 1011.9
20260906003305 75 63 2.0 6.0 0.00 0.00 0.00 80 1011.9
20260906002805 75 87 2.0 6.0 0.00 0.00 0.00 80 1011.9
20260906002306 75 35 2.0 6.0 0.00 0.00 0.00 80 1011.9
20260906001806 75 77 1.0 5.0 0.00 0.00 0.00 80 1011.9
20260906001305 76 43 1.0 5.0 0.00 0.00 0.00 79 1011.9
20260906000305 76 70 1.0 3.0 0.00 0.00 0.00 78 1011.9
20260905235805 76 84 2.0 7.0 0.00 0.00 0.00 78 1011.9
20260905234805 76 71 2.0 5.0 0.00 0.00 0.00 77 1011.9
20260905233806 77 93 2.0 6.0 0.00 0.00 0.00 76 1011.9
20260905233305 77 89 2.0 7.0 0.00 0.00 0.00 74 1011.9
20260905232805 77 73 1.0 2.0 0.00 0.00 0.00 76 1011.9
20260905232306 78 43 1.0 3.0 0.00 0.00 0.00 77 1011.9
20260905231805 78 133 1.0 2.0 0.00 0.00 0.00 78 1011.9
20260905231306 78 107 1.0 5.0 0.00 0.00 0.00 77 1011.9
20260905230805 78 26 1.0 5.0 0.00 0.00 0.00 76 1011.9
20260905225805 78 180 2.0 5.0 0.00 0.00 0.00 75 1011.9
20260905225306 78 101 1.0 3.0 0.00 0.00 0.00 75 1011.9
20260905224305 79 115 1.0 2.0 0.00 0.00 0.00 75 1011.9
20260905223805 79 84 1.0 2.0 0.00 0.00 0.00 75 1011.9
20260905223305 79 116 1.0 3.0 0.00 0.00 0.00 73 1011.9
20260905222805 78 40 1.0 2.0 0.00 0.00 0.00 72 1011.9
20260905222306 78 76 1.0 2.0 0.00 0.00 0.00 74 1011.9
20260905221810 78 67 1.0 2.0 0.00 0.00 0.00 71 1011.9
20260905221316 78 44 1.0 3.0 0.00 0.00 0.00 75 1011.9
20260905220805 79 21 0.0 1.0 0.00 0.00 0.00 75 1011.9
20260905220305 79 26 0.0 2.0 0.00 0.00 0.00 73 1011.9
20260905215805 80 251 1.0 5.0 0.00 0.00 0.00 75 1011.9
20260905215306 80 342 1.0 3.0 0.00 0.00 0.00 74 1011.9
20260905214805 80 152 0.0 1.0 0.00 0.00 0.00 72 1011.9
20260905214305 80 209 0.0 1.0 0.00 0.00 0.00 73 1011.9
20260905213805 80 142 1.0 2.0 0.00 0.00 0.00 71 1011.9
20260905212306 79 318 1.0 1.0 0.00 0.00 0.00 72 1011.9
20260905211806 79 159 0.0 2.0 0.00 0.00 0.00 72 1011.9
20260905211305 79 325 2.0 3.0 0.00 0.00 0.00 74 1011.9
20260905210805 79 246 0.0 2.0 0.00 0.00 0.00 75 1011.9
20260905210305 80 345 1.0 3.0 0.00 0.00 0.00 74 1011.9
20260905205306 79 258 1.0 2.0 0.00 0.00 0.00 71 1011.9
20260905204805 79 231 2.0 6.0 0.00 0.00 0.00 73 1011.9
20260905204305 79 280 2.0 5.0 0.00 0.00 0.00 75 1011.9
20260905203805 78 238 2.0 7.0 0.00 0.00 0.00 74 1011.9
20260905203305 78 282 2.0 6.0 0.00 0.00 0.00 74 1011.9
20260905202805 78 308 2.0 6.0 0.00 0.00 0.00 73 1011.9
20260905202312 79 264 2.0 8.0 0.00 0.00 0.00 75 1011.9
20260905201805 79 352 1.0 5.0 0.00 0.00 0.00 74 1011.9
20260905201305 78 303 1.0 5.0 0.00 0.00 0.00 71 1011.9
20260905200805 78 239 2.0 6.0 0.00 0.00 0.00 75 1011.9
20260905200305 78 234 3.0 7.0 0.00 0.00 0.00 76 1011.9
20260905195805 78 234 2.0 6.0 0.00 0.00 0.00 76 1011.9
20260905195306 78 293 3.0 6.0 0.00 0.00 0.00 76 1011.9
20260905194805 79 213 3.0 6.0 0.00 0.00 0.00 72 1011.9
20260905194305 79 228 2.0 6.0 0.00 0.00 0.00 77 1011.9
20260905193805 79 256 1.0 5.0 0.00 0.00 0.00 75 1011.9
20260905193305 79 275 2.0 6.0 0.00 0.00 0.00 73 1011.9
20260905192306 79 333 2.0 6.0 0.00 0.00 0.00 74 1011.9
20260905191805 79 319 2.0 5.0 0.00 0.00 0.00 76 1011.9
20260905191305 78 313 2.0 5.0 0.00 0.00 0.00 76 1011.9
20260905190805 77 299 2.0 5.0 0.00 0.00 0.00 75 1011.9
20260905190304 77 266 2.0 5.0 0.00 0.00 0.00 78 1011.9
20260905184805 77 267 0.0 2.0 0.00 0.00 0.00 79 1011.9
20260905184305 77 251 0.0 2.0 0.00 0.00 0.00 79 1011.9
20260905181804 77 255 1.0 2.0 0.00 0.00 0.00 78 1011.9
20260905181305 77 269 0.0 2.0 0.00 0.00 0.00 80 1011.9
20260905180805 77 40 2.0 3.0 0.00 0.00 0.00 81 1011.9
20260905180305 77 30 1.0 2.0 0.00 0.00 0.00 79 1011.9
20260905175805 77 24 1.0 2.0 0.00 0.00 0.00 80 1011.9
20260905175306 77 155 1.0 2.0 0.00 0.00 0.00 77 1011.9
20260905174804 77 106 2.0 3.0 0.00 0.00 0.00 79 1011.9